Time,TemperatureF,DewpointF,PressureIn,WindDirection,WindDirectionDegrees,WindSpeedMPH,WindSpeedGustMPH,Humidity,HourlyPrecipIn,Conditions,Clouds,dailyrainin,SoftwareType,DateUTC
2013-01-30 00:00:00,61.0,58.7,29.91,SE,126,7.0,7.0,92,0.00,,,0.14,Wunderground v.1.15,2013-01-30 05:00:00,
2013-01-30 00:05:00,60.9,58.6,29.91,SE,130,7.0,7.0,92,0.00,,,0.00,Wunderground v.1.15,2013-01-30 05:05:00,
2013-01-30 00:15:00,60.8,58.5,29.91,SE,145,6.0,9.0,92,0.00,,,0.00,Wunderground v.1.15,2013-01-30 05:15:00,
2013-01-30 00:20:00,60.8,58.2,29.91,SSW,193,4.0,6.0,91,0.00,,,0.00,Wunderground v.1.15,2013-01-30 05:20:00,
2013-01-30 00:25:00,60.8,58.2,29.91,ESE,115,4.0,6.0,91,0.00,,,0.00,Wunderground v.1.15,2013-01-30 05:25:00,
2013-01-30 00:30:00,60.8,57.5,29.90,ESE,111,6.0,6.0,89,0.00,,,0.00,Wunderground v.1.15,2013-01-30 05:30:00,
2013-01-30 00:35:00,60.9,57.6,29.90,ESE,108,7.0,9.0,89,0.00,,,0.00,Wunderground v.1.15,2013-01-30 05:35:00,
2013-01-30 00:40:00,60.8,57.2,29.89,ESE,105,7.0,8.0,88,0.00,,,0.00,Wunderground v.1.15,2013-01-30 05:40:00,
2013-01-30 00:45:00,60.8,57.2,29.89,ESE,119,7.0,8.0,88,0.00,,,0.00,Wunderground v.1.15,2013-01-30 05:45:00,
2013-01-30 00:50:00,60.6,57.0,29.89,ESE,113,5.0,6.0,88,0.00,,,0.00,Wunderground v.1.15,2013-01-30 05:50:00,
2013-01-30 00:55:00,60.5,56.9,29.89,SE,128,4.0,6.0,88,0.00,,,0.00,Wunderground v.1.15,2013-01-30 05:55:00,
2013-01-30 01:00:00,60.6,57.0,29.89,SE,129,3.0,4.0,88,0.00,,,0.00,Wunderground v.1.15,2013-01-30 06:00:00,
2013-01-30 01:05:00,60.5,56.9,29.89,ESE,120,5.0,5.0,88,0.00,,,0.00,Wunderground v.1.15,2013-01-30 06:05:00,
2013-01-30 01:10:00,60.5,56.9,29.88,ESE,120,5.0,5.0,88,0.00,,,0.00,Wunderground v.1.15,2013-01-30 06:10:00,
2013-01-30 01:15:00,60.3,57.0,29.88,ENE,65,5.0,5.0,89,0.00,,,0.00,Wunderground v.1.15,2013-01-30 06:15:00,
2013-01-30 01:20:00,60.1,56.8,29.88,SE,132,5.0,5.0,89,0.00,,,0.00,Wunderground v.1.15,2013-01-30 06:20:00,
2013-01-30 01:25:00,60.0,57.1,29.87,ESE,103,5.0,5.0,90,0.00,,,0.00,Wunderground v.1.15,2013-01-30 06:25:00,
2013-01-30 01:30:00,59.9,57.0,29.87,East,98,6.0,9.0,90,0.00,,,0.00,Wunderground v.1.15,2013-01-30 06:30:00,
2013-01-30 01:35:00,59.8,57.2,29.88,SE,125,6.0,9.0,91,0.00,,,0.00,Wunderground v.1.15,2013-01-30 06:35:00,
2013-01-30 01:40:00,60.0,57.1,29.87,East,83,7.0,14.0,90,0.00,,,0.00,Wunderground v.1.15,2013-01-30 06:40:00,
2013-01-30 01:45:00,60.0,57.1,29.87,SE,142,6.0,14.0,90,0.00,,,0.00,Wunderground v.1.15,2013-01-30 06:45:00,
2013-01-30 01:50:00,60.0,57.4,29.86,SE,134,6.0,6.0,91,0.00,,,0.00,Wunderground v.1.15,2013-01-30 06:50:00,
2013-01-30 01:55:00,60.0,57.4,29.85,SE,129,7.0,7.0,91,0.00,,,0.00,Wunderground v.1.15,2013-01-30 06:55:00,
2013-01-30 02:00:00,60.0,57.4,29.85,SE,139,8.0,8.0,91,0.00,,,0.00,Wunderground v.1.15,2013-01-30 07:00:00,
2013-01-30 02:05:00,59.9,57.3,29.84,East,101,8.0,8.0,91,0.00,,,0.00,Wunderground v.1.15,2013-01-30 07:05:00,
2013-01-30 02:10:00,60.0,57.7,29.83,East,92,8.0,8.0,92,0.00,,,0.00,Wunderground v.1.15,2013-01-30 07:10:00,
2013-01-30 02:15:00,60.1,57.8,29.83,SE,126,9.0,12.0,92,0.00,,,0.00,Wunderground v.1.15,2013-01-30 07:15:00,
2013-01-30 02:20:00,60.2,57.9,29.83,ESE,109,8.0,8.0,92,0.00,,,0.00,Wunderground v.1.15,2013-01-30 07:20:00,
2013-01-30 02:25:00,60.3,58.0,29.82,SE,141,7.0,8.0,92,0.00,,,0.00,Wunderground v.1.15,2013-01-30 07:25:00,
2013-01-30 02:30:00,60.5,58.2,29.82,ESE,107,8.0,9.0,92,0.00,,,0.00,Wunderground v.1.15,2013-01-30 07:30:00,
2013-01-30 02:35:00,60.5,58.2,29.83,SE,138,8.0,9.0,92,0.00,,,0.00,Wunderground v.1.15,2013-01-30 07:35:00,
2013-01-30 02:40:00,60.4,58.1,29.83,ESE,117,9.0,11.0,92,0.00,,,0.00,Wunderground v.1.15,2013-01-30 07:40:00,
2013-01-30 02:50:00,60.0,58.0,29.82,ESE,113,9.0,11.0,93,0.18,,,0.02,Wunderground v.1.15,2013-01-30 07:50:00,
2013-01-30 02:55:00,59.8,58.1,29.82,SE,136,8.0,11.0,94,0.09,,,0.02,Wunderground v.1.15,2013-01-30 07:55:00,
2013-01-30 03:00:00,59.6,57.9,29.82,ESE,119,8.0,9.0,94,0.05,,,0.02,Wunderground v.1.15,2013-01-30 08:00:00,
2013-01-30 03:05:00,59.5,57.8,29.82,SE,137,7.0,9.0,94,0.00,,,0.02,Wunderground v.1.15,2013-01-30 08:05:00,
2013-01-30 03:10:00,59.5,57.8,29.82,ESE,121,8.0,8.0,94,0.00,,,0.02,Wunderground v.1.15,2013-01-30 08:10:00,
2013-01-30 03:15:00,59.6,57.9,29.81,ESE,123,8.0,13.0,94,0.00,,,0.02,Wunderground v.1.15,2013-01-30 08:15:00,
2013-01-30 03:20:00,59.6,57.9,29.81,ESE,121,7.0,11.0,94,0.00,,,0.03,Wunderground v.1.15,2013-01-30 08:20:00,
2013-01-30 03:25:00,59.4,57.7,29.81,SE,128,8.0,11.0,94,0.20,,,0.04,Wunderground v.1.15,2013-01-30 08:25:00,
2013-01-30 03:30:00,59.1,57.7,29.82,SE,142,7.0,7.0,95,0.08,,,0.04,Wunderground v.1.15,2013-01-30 08:30:00,
2013-01-30 03:40:00,59.0,57.3,29.81,SSE,162,6.0,6.0,94,0.00,,,0.04,Wunderground v.1.15,2013-01-30 08:40:00,
2013-01-30 03:45:00,59.0,57.3,29.80,ESE,121,6.0,6.0,94,0.00,,,0.04,Wunderground v.1.15,2013-01-30 08:45:00,
2013-01-30 03:50:00,59.0,57.3,29.81,SE,134,6.0,6.0,94,0.00,,,0.04,Wunderground v.1.15,2013-01-30 08:50:00,
2013-01-30 03:55:00,59.0,57.3,29.79,ESE,103,6.0,10.0,94,0.00,,,0.04,Wunderground v.1.15,2013-01-30 08:55:00,
2013-01-30 04:00:00,59.0,57.3,29.79,ESE,113,6.0,6.0,94,0.00,,,0.04,Wunderground v.1.15,2013-01-30 09:00:00,
2013-01-30 04:05:00,59.0,57.3,29.79,SE,130,7.0,8.0,94,0.00,,,0.04,Wunderground v.1.15,2013-01-30 09:05:00,
2013-01-30 04:10:00,59.0,57.6,29.79,ESE,109,8.0,8.0,95,0.00,,,0.04,Wunderground v.1.15,2013-01-30 09:10:00,
2013-01-30 04:15:00,59.1,57.4,29.79,ESE,105,5.0,8.0,94,0.50,,,0.06,Wunderground v.1.15,2013-01-30 09:15:00,
2013-01-30 04:20:00,59.0,57.6,29.79,SSW,207,5.0,5.0,95,0.13,,,0.07,Wunderground v.1.15,2013-01-30 09:20:00,
2013-01-30 04:25:00,59.0,57.6,29.78,SSW,211,4.0,11.0,95,0.19,,,0.08,Wunderground v.1.15,2013-01-30 09:25:00,
2013-01-30 04:30:00,59.2,57.8,29.78,SE,141,5.0,5.0,95,0.08,,,0.08,Wunderground v.1.15,2013-01-30 09:30:00,
2013-01-30 04:35:00,59.0,57.6,29.78,ESE,113,4.0,5.0,95,0.14,,,0.10,Wunderground v.1.15,2013-01-30 09:35:00,
2013-01-30 04:40:00,59.0,57.6,29.78,SE,130,5.0,5.0,95,0.08,,,0.11,Wunderground v.1.15,2013-01-30 09:40:00,
2013-01-30 04:45:00,59.0,57.9,29.77,ESE,119,6.0,10.0,96,0.66,,,0.14,Wunderground v.1.15,2013-01-30 09:45:00,
2013-01-30 04:50:00,59.0,57.9,29.77,ESE,112,6.0,6.0,96,0.34,,,0.16,Wunderground v.1.15,2013-01-30 09:50:00,
2013-01-30 04:55:00,59.0,57.9,29.77,ESE,113,7.0,10.0,96,0.25,,,0.18,Wunderground v.1.15,2013-01-30 09:55:00,
2013-01-30 05:00:00,58.9,58.1,29.76,ESE,119,7.0,7.0,97,0.18,,,0.20,Wunderground v.1.15,2013-01-30 10:00:00,
2013-01-30 05:05:00,58.6,57.8,29.76,ESE,114,8.0,8.0,97,0.09,,,0.20,Wunderground v.1.15,2013-01-30 10:05:00,
2013-01-30 05:15:00,58.4,57.6,29.76,SE,130,7.0,8.0,97,0.04,,,0.20,Wunderground v.1.15,2013-01-30 10:15:00,
2013-01-30 05:20:00,58.4,57.6,29.75,SE,129,7.0,7.0,97,0.22,,,0.22,Wunderground v.1.15,2013-01-30 10:20:00,
2013-01-30 05:25:00,58.5,57.7,29.74,SE,124,6.0,7.0,97,0.34,,,0.24,Wunderground v.1.15,2013-01-30 10:25:00,
2013-01-30 05:30:00,58.5,57.7,29.73,ESE,119,6.0,10.0,97,0.11,,,0.24,Wunderground v.1.15,2013-01-30 10:30:00,
2013-01-30 05:40:00,58.6,57.8,29.72,SE,125,7.0,7.0,97,0.13,,,0.26,Wunderground v.1.15,2013-01-30 10:40:00,
2013-01-30 05:45:00,58.6,57.8,29.71,ESE,113,7.0,10.0,97,0.38,,,0.30,Wunderground v.1.15,2013-01-30 10:45:00,
2013-01-30 05:50:00,58.4,57.6,29.71,ESE,108,8.0,8.0,97,0.32,,,0.34,Wunderground v.1.15,2013-01-30 10:50:00,
2013-01-30 05:55:00,58.4,57.6,29.71,ESE,121,7.0,11.0,97,0.90,,,0.38,Wunderground v.1.15,2013-01-30 10:55:00,
2013-01-30 06:00:00,58.2,57.4,29.71,ESE,121,7.0,11.0,97,1.15,,,0.42,Wunderground v.1.15,2013-01-30 11:00:00,
2013-01-30 06:05:00,58.1,57.3,29.71,ESE,117,9.0,11.0,97,1.51,,,0.46,Wunderground v.1.15,2013-01-30 11:05:00,
2013-01-30 06:10:00,58.0,57.2,29.71,ESE,119,10.0,11.0,97,0.30,,,0.49,Wunderground v.1.15,2013-01-30 11:10:00,
2013-01-30 06:15:00,58.1,57.3,29.70,ESE,123,10.0,11.0,97,0.23,,,0.53,Wunderground v.1.15,2013-01-30 11:15:00,
2013-01-30 06:20:00,58.2,57.4,29.70,ESE,117,9.0,9.0,97,0.59,,,0.56,Wunderground v.1.15,2013-01-30 11:20:00,
2013-01-30 06:25:00,58.9,58.3,29.71,SE,137,7.0,9.0,98,0.23,,,0.61,Wunderground v.1.15,2013-01-30 11:25:00,
2013-01-30 06:30:00,59.0,58.4,29.71,SSW,192,6.0,6.0,98,0.41,,,0.64,Wunderground v.1.15,2013-01-30 11:30:00,
2013-01-30 06:35:00,59.3,58.7,29.71,ESE,114,6.0,11.0,98,0.21,,,0.66,Wunderground v.1.15,2013-01-30 11:35:00,
2013-01-30 06:40:00,59.5,58.6,29.70,ESE,122,6.0,6.0,97,0.29,,,0.69,Wunderground v.1.15,2013-01-30 11:40:00,
2013-01-30 06:45:00,59.5,58.9,29.70,ESE,115,6.0,8.0,98,0.41,,,0.73,Wunderground v.1.15,2013-01-30 11:45:00,
2013-01-30 06:50:00,59.6,59.0,29.71,SSE,162,6.0,7.0,98,0.63,,,0.76,Wunderground v.1.15,2013-01-30 11:50:00,
2013-01-30 06:55:00,59.7,59.1,29.69,ESE,118,7.0,11.0,98,0.12,,,0.76,Wunderground v.1.15,2013-01-30 11:55:00,
2013-01-30 07:00:00,59.9,59.0,29.69,ESE,118,7.0,12.0,97,0.24,,,0.78,Wunderground v.1.15,2013-01-30 12:00:00,
2013-01-30 07:05:00,60.0,59.1,29.69,SW,227,8.0,12.0,97,0.08,,,0.78,Wunderground v.1.15,2013-01-30 12:05:00,
2013-01-30 07:10:00,60.2,59.3,29.69,East,86,8.0,8.0,97,0.06,,,0.79,Wunderground v.1.15,2013-01-30 12:10:00,
2013-01-30 07:15:00,60.3,59.4,29.69,East,98,7.0,8.0,97,0.13,,,0.80,Wunderground v.1.15,2013-01-30 12:15:00,
2013-01-30 07:20:00,60.3,59.4,29.69,SE,139,6.0,6.0,97,0.29,,,0.82,Wunderground v.1.15,2013-01-30 12:20:00,
2013-01-30 07:25:00,60.3,59.4,29.68,SSE,148,6.0,6.0,97,0.73,,,0.84,Wunderground v.1.15,2013-01-30 12:25:00,
2013-01-30 07:30:00,60.3,59.4,29.68,SE,128,6.0,6.0,97,0.31,,,0.87,Wunderground v.1.15,2013-01-30 12:30:00,
2013-01-30 07:35:00,60.3,59.4,29.68,SE,128,7.0,7.0,97,0.59,,,0.90,Wunderground v.1.15,2013-01-30 12:35:00,
2013-01-30 07:40:00,60.2,59.3,29.68,SE,132,7.0,7.0,97,0.10,,,0.90,Wunderground v.1.15,2013-01-30 12:40:00,
2013-01-30 07:45:00,60.2,59.3,29.68,SE,133,7.0,7.0,97,0.22,,,0.93,Wunderground v.1.15,2013-01-30 12:45:00,
2013-01-30 07:50:00,60.2,59.3,29.68,ESE,105,6.0,6.0,97,0.16,,,0.94,Wunderground v.1.15,2013-01-30 12:50:00,
2013-01-30 07:55:00,60.1,59.2,29.68,SSW,192,6.0,6.0,97,0.19,,,0.97,Wunderground v.1.15,2013-01-30 12:55:00,
2013-01-30 08:00:00,60.2,59.3,29.68,ESE,114,7.0,10.0,97,0.17,,,0.98,Wunderground v.1.15,2013-01-30 13:00:00,
2013-01-30 08:05:00,60.4,59.5,29.69,SE,132,8.0,10.0,97,0.07,,,0.98,Wunderground v.1.15,2013-01-30 13:05:00,
2013-01-30 08:15:00,60.7,59.8,29.68,ESE,103,8.0,10.0,97,0.22,,,0.99,Wunderground v.1.15,2013-01-30 13:15:00,
2013-01-30 08:20:00,60.7,59.8,29.68,ESE,102,7.0,9.0,97,0.10,,,1.00,Wunderground v.1.15,2013-01-30 13:20:00,
2013-01-30 08:25:00,60.7,59.8,29.68,SE,135,7.0,9.0,97,0.41,,,1.03,Wunderground v.1.15,2013-01-30 13:25:00,
2013-01-30 08:30:00,60.6,59.7,29.67,ESE,110,7.0,9.0,97,0.11,,,1.03,Wunderground v.1.15,2013-01-30 13:30:00,
2013-01-30 08:35:00,60.5,59.6,29.67,East,98,7.0,11.0,97,0.21,,,1.06,Wunderground v.1.15,2013-01-30 13:35:00,
2013-01-30 08:40:00,60.5,59.6,29.67,ESE,119,8.0,8.0,97,0.95,,,1.13,Wunderground v.1.15,2013-01-30 13:40:00,
2013-01-30 08:45:00,60.6,59.7,29.68,SE,130,8.0,10.0,97,0.14,,,1.14,Wunderground v.1.15,2013-01-30 13:45:00,
2013-01-30 08:50:00,60.9,60.0,29.67,SSE,156,9.0,12.0,97,0.17,,,1.15,Wunderground v.1.15,2013-01-30 13:50:00,
2013-01-30 08:55:00,61.1,60.0,29.67,ESE,102,8.0,12.0,96,0.09,,,1.16,Wunderground v.1.15,2013-01-30 13:55:00,
2013-01-30 09:00:00,61.1,60.2,29.67,SSW,197,7.0,7.0,97,0.71,,,1.20,Wunderground v.1.15,2013-01-30 14:00:00,
2013-01-30 09:05:00,61.1,60.2,29.66,SE,143,8.0,8.0,97,0.24,,,1.23,Wunderground v.1.15,2013-01-30 14:05:00,
2013-01-30 09:10:00,61.1,60.2,29.67,ESE,119,8.0,12.0,97,0.30,,,1.25,Wunderground v.1.15,2013-01-30 14:10:00,
2013-01-30 09:15:00,61.1,60.2,29.67,ESE,117,7.0,12.0,97,0.47,,,1.29,Wunderground v.1.15,2013-01-30 14:15:00,
2013-01-30 09:20:00,61.1,60.2,29.65,ESE,106,7.0,10.0,97,0.19,,,1.30,Wunderground v.1.15,2013-01-30 14:20:00,
2013-01-30 09:25:00,61.1,60.2,29.66,SE,137,7.0,11.0,97,0.36,,,1.33,Wunderground v.1.15,2013-01-30 14:25:00,
2013-01-30 09:30:00,61.1,60.2,29.66,ESE,119,9.0,9.0,97,0.11,,,1.34,Wunderground v.1.15,2013-01-30 14:30:00,
2013-01-30 09:35:00,61.3,60.2,29.65,SSE,154,10.0,10.0,96,0.10,,,1.34,Wunderground v.1.15,2013-01-30 14:35:00,
2013-01-30 09:40:00,61.4,60.2,29.67,East,92,9.0,14.0,96,0.05,,,1.34,Wunderground v.1.15,2013-01-30 14:40:00,
2013-01-30 09:45:00,61.4,60.2,29.67,SSE,163,8.0,14.0,96,0.04,,,1.34,Wunderground v.1.15,2013-01-30 14:45:00,
2013-01-30 09:50:00,61.4,60.2,29.67,South,182,8.0,8.0,96,0.00,,,1.35,Wunderground v.1.15,2013-01-30 14:50:00,
2013-01-30 09:55:00,61.4,60.2,29.66,SSE,155,7.0,8.0,96,0.00,,,1.35,Wunderground v.1.15,2013-01-30 14:55:00,
2013-01-30 10:00:00,61.4,60.2,29.67,East,90,7.0,9.0,96,0.05,,,1.36,Wunderground v.1.15,2013-01-30 15:00:00,
2013-01-30 10:05:00,61.3,60.2,29.66,East,90,7.0,10.0,96,0.05,,,1.36,Wunderground v.1.15,2013-01-30 15:05:00,
2013-01-30 10:10:00,61.2,60.1,29.65,ESE,119,7.0,7.0,96,0.08,,,1.37,Wunderground v.1.15,2013-01-30 15:10:00,
2013-01-30 10:15:00,61.2,60.1,29.65,SSW,212,6.0,7.0,96,0.23,,,1.40,Wunderground v.1.15,2013-01-30 15:15:00,
2013-01-30 10:20:00,61.1,60.2,29.63,SE,130,5.0,15.0,97,0.16,,,1.43,Wunderground v.1.15,2013-01-30 15:20:00,
2013-01-30 10:25:00,61.1,60.2,29.64,ESE,116,7.0,15.0,97,0.97,,,1.49,Wunderground v.1.15,2013-01-30 15:25:00,
2013-01-30 10:30:00,61.1,60.2,29.64,ESE,115,7.0,10.0,97,0.13,,,1.51,Wunderground v.1.15,2013-01-30 15:30:00,
2013-01-30 10:35:00,61.1,60.2,29.64,ESE,113,7.0,10.0,97,0.97,,,1.57,Wunderground v.1.15,2013-01-30 15:35:00,
2013-01-30 10:40:00,61.1,60.2,29.63,SE,125,7.0,10.0,97,0.11,,,1.57,Wunderground v.1.15,2013-01-30 15:40:00,
2013-01-30 10:45:00,61.1,60.2,29.63,SE,132,8.0,20.0,97,0.27,,,1.59,Wunderground v.1.15,2013-01-30 15:45:00,
2013-01-30 10:50:00,61.2,60.1,29.64,ENE,63,9.0,9.0,96,0.34,,,1.61,Wunderground v.1.15,2013-01-30 15:50:00,
2013-01-30 10:55:00,61.3,60.2,29.63,SW,232,9.0,9.0,96,0.09,,,1.61,Wunderground v.1.15,2013-01-30 15:55:00,
2013-01-30 11:00:00,61.4,60.2,29.62,ESE,109,8.0,8.0,96,0.05,,,1.61,Wunderground v.1.15,2013-01-30 16:00:00,
2013-01-30 11:05:00,61.6,60.4,29.62,SE,125,9.0,9.0,96,0.05,,,1.62,Wunderground v.1.15,2013-01-30 16:05:00,
2013-01-30 11:15:00,61.4,60.2,29.60,East,98,8.0,13.0,96,0.51,,,1.67,Wunderground v.1.15,2013-01-30 16:15:00,
2013-01-30 11:20:00,61.3,60.2,29.60,ESE,117,8.0,9.0,96,0.42,,,1.71,Wunderground v.1.15,2013-01-30 16:20:00,
2013-01-30 11:25:00,61.3,60.2,29.60,ESE,122,9.0,9.0,96,0.11,,,1.71,Wunderground v.1.15,2013-01-30 16:25:00,
2013-01-30 11:30:00,61.4,60.2,29.59,ESE,119,10.0,12.0,96,0.06,,,1.71,Wunderground v.1.15,2013-01-30 16:30:00,
2013-01-30 11:35:00,61.5,60.3,29.60,SE,141,11.0,12.0,96,0.04,,,1.71,Wunderground v.1.15,2013-01-30 16:35:00,
2013-01-30 11:40:00,61.5,60.3,29.60,SE,133,10.0,10.0,96,0.00,,,1.71,Wunderground v.1.15,2013-01-30 16:40:00,
2013-01-30 11:45:00,61.6,60.4,29.60,ESE,103,10.0,10.0,96,0.00,,,1.71,Wunderground v.1.15,2013-01-30 16:45:00,
2013-01-30 11:50:00,61.8,60.4,29.59,SE,142,10.0,10.0,95,0.00,,,1.71,Wunderground v.1.15,2013-01-30 16:50:00,
2013-01-30 11:55:00,61.9,60.5,29.57,East,90,9.0,14.0,95,0.00,,,1.71,Wunderground v.1.15,2013-01-30 16:55:00,
2013-01-30 12:00:00,61.9,60.5,29.57,SE,144,11.0,11.0,95,0.36,,,1.73,Wunderground v.1.15,2013-01-30 17:00:00,
2013-01-30 12:05:00,61.8,60.4,29.56,ESE,117,11.0,16.0,95,0.09,,,1.73,Wunderground v.1.15,2013-01-30 17:05:00,
2013-01-30 12:10:00,61.9,60.5,29.55,ESE,111,12.0,15.0,95,0.05,,,1.73,Wunderground v.1.15,2013-01-30 17:10:00,
2013-01-30 12:15:00,62.0,60.6,29.55,SE,136,14.0,15.0,95,0.05,,,1.74,Wunderground v.1.15,2013-01-30 17:15:00,
2013-01-30 12:20:00,62.0,60.6,29.53,SSE,152,14.0,14.0,95,0.07,,,1.75,Wunderground v.1.15,2013-01-30 17:20:00,
2013-01-30 12:25:00,61.9,60.5,29.53,SE,132,14.0,16.0,95,0.12,,,1.76,Wunderground v.1.15,2013-01-30 17:25:00,
2013-01-30 12:30:00,61.8,60.4,29.52,East,98,15.0,20.0,95,0.36,,,1.79,Wunderground v.1.15,2013-01-30 17:30:00,
2013-01-30 12:35:00,61.8,60.6,29.52,East,95,13.0,20.0,96,0.42,,,1.82,Wunderground v.1.15,2013-01-30 17:35:00,
2013-01-30 12:40:00,61.7,60.5,29.52,East,97,13.0,13.0,96,1.17,,,1.87,Wunderground v.1.15,2013-01-30 17:40:00,
2013-01-30 12:45:00,61.6,60.4,29.51,SSE,168,13.0,13.0,96,0.41,,,1.89,Wunderground v.1.15,2013-01-30 17:45:00,
2013-01-30 12:50:00,61.6,60.4,29.52,ESE,107,12.0,12.0,96,0.27,,,1.91,Wunderground v.1.15,2013-01-30 17:50:00,
2013-01-30 12:55:00,61.7,60.5,29.53,WSW,237,11.0,12.0,96,0.26,,,1.94,Wunderground v.1.15,2013-01-30 17:55:00,
2013-01-30 13:00:00,61.7,60.5,29.57,NW,313,8.0,8.0,96,0.39,,,1.97,Wunderground v.1.15,2013-01-30 18:00:00,
2013-01-30 13:05:00,59.3,56.7,29.58,WNW,303,7.0,8.0,91,2.80,,,2.09,Wunderground v.1.15,2013-01-30 18:05:00,
2013-01-30 13:10:00,57.8,55.8,29.56,WNW,295,8.0,8.0,93,4.84,,,2.25,Wunderground v.1.15,2013-01-30 18:10:00,
2013-01-30 13:15:00,57.1,55.7,29.54,NW,310,7.0,8.0,95,3.29,,,2.37,Wunderground v.1.15,2013-01-30 18:15:00,
2013-01-30 13:20:00,56.8,55.4,29.55,West,273,5.0,5.0,95,0.74,,,2.42,Wunderground v.1.15,2013-01-30 18:20:00,
2013-01-30 13:25:00,56.7,55.6,29.55,SW,226,4.0,6.0,96,2.81,,,2.50,Wunderground v.1.15,2013-01-30 18:25:00,
2013-01-30 13:30:00,56.6,55.5,29.56,WNW,282,3.0,3.0,96,1.01,,,2.63,Wunderground v.1.15,2013-01-30 18:30:00,
2013-01-30 13:35:00,56.5,55.4,29.54,SE,127,3.0,4.0,96,0.70,,,2.70,Wunderground v.1.15,2013-01-30 18:35:00,
2013-01-30 13:40:00,56.5,55.7,29.54,West,264,1.0,10.0,97,0.43,,,2.73,Wunderground v.1.15,2013-01-30 18:40:00,
2013-01-30 13:45:00,56.5,55.7,29.54,SSW,212,2.0,10.0,97,0.34,,,2.79,Wunderground v.1.15,2013-01-30 18:45:00,
2013-01-30 13:50:00,56.5,55.7,29.54,ESE,118,2.0,5.0,97,0.40,,,2.82,Wunderground v.1.15,2013-01-30 18:50:00,
2013-01-30 13:55:00,56.4,55.6,29.55,ESE,117,2.0,5.0,97,0.30,,,2.85,Wunderground v.1.15,2013-01-30 18:55:00,
2013-01-30 14:05:00,56.3,55.5,29.51,ESE,121,1.0,2.0,97,0.37,,,2.92,Wunderground v.1.15,2013-01-30 19:05:00,
2013-01-30 14:10:00,56.2,55.4,29.50,SE,125,1.0,3.0,97,0.28,,,2.95,Wunderground v.1.15,2013-01-30 19:10:00,
2013-01-30 14:15:00,56.2,55.4,29.51,SE,125,1.0,3.0,97,0.62,,,3.00,Wunderground v.1.15,2013-01-30 19:15:00,
2013-01-30 14:20:00,56.2,55.4,29.51,SE,125,1.0,3.0,97,0.40,,,3.05,Wunderground v.1.15,2013-01-30 19:20:00,
2013-01-30 14:25:00,56.2,55.4,29.51,SE,124,2.0,3.0,97,0.84,,,3.08,Wunderground v.1.15,2013-01-30 19:25:00,
2013-01-30 14:30:00,56.2,55.6,29.50,SE,124,2.0,2.0,98,0.64,,,3.11,Wunderground v.1.15,2013-01-30 19:30:00,
2013-01-30 14:35:00,56.2,55.6,29.51,ESE,123,1.0,2.0,98,0.24,,,3.14,Wunderground v.1.15,2013-01-30 19:35:00,
2013-01-30 14:40:00,56.2,55.6,29.49,SE,124,1.0,1.0,98,0.18,,,3.16,Wunderground v.1.15,2013-01-30 19:40:00,
2013-01-30 14:45:00,56.3,55.7,29.49,SE,124,0.0,1.0,98,0.26,,,3.18,Wunderground v.1.15,2013-01-30 19:45:00,
2013-01-30 14:50:00,56.3,55.7,29.49,ESE,123,0.0,0.0,98,0.24,,,3.20,Wunderground v.1.15,2013-01-30 19:50:00,
2013-01-30 14:55:00,56.3,55.7,29.49,SE,124,0.0,0.0,98,0.25,,,3.22,Wunderground v.1.15,2013-01-30 19:55:00,
2013-01-30 15:00:00,56.4,55.8,29.49,SE,124,0.0,3.0,98,0.22,,,3.24,Wunderground v.1.15,2013-01-30 20:00:00,
2013-01-30 15:05:00,56.4,55.8,29.50,SE,124,1.0,3.0,98,0.20,,,3.26,Wunderground v.1.15,2013-01-30 20:05:00,
2013-01-30 15:15:00,56.3,55.7,29.50,ESE,123,2.0,2.0,98,0.23,,,3.32,Wunderground v.1.15,2013-01-30 20:15:00,
2013-01-30 15:20:00,56.2,55.6,29.50,ESE,123,1.0,1.0,98,0.60,,,3.36,Wunderground v.1.15,2013-01-30 20:20:00,
2013-01-30 15:25:00,56.2,55.6,29.48,ESE,122,0.0,1.0,98,0.31,,,3.39,Wunderground v.1.15,2013-01-30 20:25:00,
2013-01-30 15:30:00,56.1,55.5,29.49,ESE,123,0.0,1.0,98,0.15,,,3.41,Wunderground v.1.15,2013-01-30 20:30:00,
2013-01-30 15:35:00,56.1,55.5,29.49,ESE,122,0.0,1.0,98,0.49,,,3.43,Wunderground v.1.15,2013-01-30 20:35:00,
2013-01-30 15:40:00,56.0,55.4,29.48,ESE,123,0.0,0.0,98,0.36,,,3.47,Wunderground v.1.15,2013-01-30 20:40:00,
2013-01-30 15:45:00,55.9,55.3,29.46,ESE,122,0.0,0.0,98,0.22,,,3.49,Wunderground v.1.15,2013-01-30 20:45:00,
2013-01-30 15:50:00,55.9,55.3,29.47,ESE,123,0.0,0.0,98,0.12,,,3.50,Wunderground v.1.15,2013-01-30 20:50:00,
2013-01-30 15:55:00,55.9,55.3,29.46,ESE,123,0.0,0.0,98,0.08,,,3.51,Wunderground v.1.15,2013-01-30 20:55:00,
2013-01-30 16:00:00,55.8,55.2,29.46,ESE,123,0.0,0.0,98,0.15,,,3.52,Wunderground v.1.15,2013-01-30 21:00:00,
2013-01-30 16:05:00,55.7,55.1,29.46,ESE,123,0.0,0.0,98,0.18,,,3.53,Wunderground v.1.15,2013-01-30 21:05:00,
2013-01-30 16:10:00,55.6,55.0,29.47,ESE,122,0.0,0.0,98,0.12,,,3.53,Wunderground v.1.15,2013-01-30 21:10:00,
2013-01-30 16:15:00,55.5,54.9,29.46,ESE,123,0.0,0.0,98,0.07,,,3.54,Wunderground v.1.15,2013-01-30 21:15:00,
2013-01-30 16:20:00,55.4,54.8,29.47,ESE,123,0.0,0.0,98,0.18,,,3.55,Wunderground v.1.15,2013-01-30 21:20:00,
2013-01-30 16:25:00,55.3,54.7,29.46,ESE,123,0.0,0.0,98,0.09,,,3.56,Wunderground v.1.15,2013-01-30 21:25:00,
2013-01-30 16:30:00,55.2,54.6,29.47,WNW,288,0.0,0.0,98,0.16,,,3.58,Wunderground v.1.15,2013-01-30 21:30:00,
2013-01-30 16:35:00,55.0,54.4,29.46,WNW,286,0.0,2.0,98,0.19,,,3.60,Wunderground v.1.15,2013-01-30 21:35:00,
2013-01-30 16:40:00,54.9,54.3,29.48,West,272,1.0,1.0,98,0.42,,,3.63,Wunderground v.1.15,2013-01-30 21:40:00,
2013-01-30 16:45:00,54.8,54.2,29.49,West,272,1.0,1.0,98,0.17,,,3.64,Wunderground v.1.15,2013-01-30 21:45:00,
2013-01-30 16:50:00,54.7,54.1,29.46,West,272,0.0,1.0,98,0.16,,,3.66,Wunderground v.1.15,2013-01-30 21:50:00,
2013-01-30 16:55:00,54.6,54.0,29.47,West,272,0.0,1.0,98,0.16,,,3.67,Wunderground v.1.15,2013-01-30 21:55:00,
2013-01-30 17:00:00,54.5,53.9,29.48,West,272,0.0,0.0,98,0.12,,,3.68,Wunderground v.1.15,2013-01-30 22:00:00,
2013-01-30 17:05:00,54.3,53.7,29.48,West,272,0.0,0.0,98,0.14,,,3.70,Wunderground v.1.15,2013-01-30 22:05:00,
2013-01-30 17:10:00,53.8,53.0,29.48,West,266,0.0,0.0,97,0.17,,,3.71,Wunderground v.1.15,2013-01-30 22:10:00,
2013-01-30 17:15:00,53.4,52.6,29.48,West,267,0.0,0.0,97,0.18,,,3.74,Wunderground v.1.15,2013-01-30 22:15:00,
2013-01-30 17:20:00,53.2,52.4,29.49,West,276,0.0,0.0,97,0.17,,,3.75,Wunderground v.1.15,2013-01-30 22:20:00,
2013-01-30 17:25:00,52.9,52.1,29.48,West,276,0.0,0.0,97,0.23,,,3.77,Wunderground v.1.15,2013-01-30 22:25:00,
2013-01-30 17:30:00,52.7,52.2,29.49,West,276,0.0,0.0,98,0.41,,,3.79,Wunderground v.1.15,2013-01-30 22:30:00,
2013-01-30 17:35:00,52.6,51.8,29.49,West,276,0.0,0.0,97,0.12,,,3.80,Wunderground v.1.15,2013-01-30 22:35:00,
2013-01-30 17:40:00,52.3,51.5,29.50,WNW,294,0.0,2.0,97,0.23,,,3.82,Wunderground v.1.15,2013-01-30 22:40:00,
2013-01-30 17:45:00,51.3,50.2,29.49,NW,314,1.0,2.0,96,0.15,,,3.84,Wunderground v.1.15,2013-01-30 22:45:00,
2013-01-30 17:50:00,50.1,49.0,29.51,NW,315,1.0,1.0,96,0.15,,,3.85,Wunderground v.1.15,2013-01-30 22:50:00,
2013-01-30 17:55:00,49.4,48.0,29.53,NW,316,1.0,1.0,95,0.10,,,3.86,Wunderground v.1.15,2013-01-30 22:55:00,
2013-01-30 18:00:00,48.8,47.7,29.51,West,269,1.0,3.0,96,0.13,,,3.87,Wunderground v.1.15,2013-01-30 23:00:00,
2013-01-30 18:05:00,48.0,46.6,29.51,NW,310,1.0,3.0,95,0.06,,,3.87,Wunderground v.1.15,2013-01-30 23:05:00,
2013-01-30 18:10:00,47.5,46.4,29.51,NW,310,1.0,1.0,96,0.04,,,3.88,Wunderground v.1.15,2013-01-30 23:10:00,
2013-01-30 18:15:00,46.9,45.5,29.51,NW,304,1.0,2.0,95,0.12,,,3.89,Wunderground v.1.15,2013-01-30 23:15:00,
2013-01-30 18:20:00,46.3,44.9,29.51,NW,304,1.0,1.0,95,0.10,,,3.89,Wunderground v.1.15,2013-01-30 23:20:00,
2013-01-30 18:25:00,45.9,44.5,29.50,NW,304,0.0,1.0,95,0.06,,,3.90,Wunderground v.1.15,2013-01-30 23:25:00,
2013-01-30 18:30:00,45.6,44.5,29.50,WNW,303,0.0,0.0,96,0.12,,,3.91,Wunderground v.1.15,2013-01-30 23:30:00,
2013-01-30 18:35:00,45.4,44.3,29.53,WNW,303,0.0,0.0,96,0.11,,,3.92,Wunderground v.1.15,2013-01-30 23:35:00,
2013-01-30 18:40:00,45.2,44.1,29.52,NW,304,0.0,0.0,96,0.21,,,3.93,Wunderground v.1.15,2013-01-30 23:40:00,
2013-01-30 18:45:00,45.1,44.0,29.50,NW,304,0.0,0.0,96,0.10,,,3.94,Wunderground v.1.15,2013-01-30 23:45:00,
2013-01-30 18:50:00,44.9,43.8,29.50,WNW,303,0.0,0.0,96,0.15,,,3.95,Wunderground v.1.15,2013-01-30 23:50:00,
2013-01-30 18:55:00,44.7,43.6,29.49,WNW,287,0.0,2.0,96,0.08,,,3.95,Wunderground v.1.15,2013-01-30 23:55:00,
2013-01-30 19:00:00,44.5,43.4,29.49,WNW,287,1.0,1.0,96,0.06,,,3.96,Wunderground v.1.15,2013-01-31 00:00:00,
2013-01-30 19:05:00,44.5,43.7,29.49,WNW,287,0.0,1.0,97,0.14,,,3.97,Wunderground v.1.15,2013-01-31 00:05:00,
2013-01-30 19:10:00,44.3,43.2,29.50,WNW,284,0.0,0.0,96,0.08,,,3.97,Wunderground v.1.15,2013-01-31 00:10:00,
2013-01-30 19:15:00,44.2,43.1,29.50,WNW,283,0.0,0.0,96,0.05,,,3.97,Wunderground v.1.15,2013-01-31 00:15:00,
2013-01-30 19:20:00,44.2,43.4,29.50,WNW,284,0.0,0.0,97,0.00,,,3.97,Wunderground v.1.15,2013-01-31 00:20:00,
2013-01-30 19:25:00,44.2,43.4,29.49,WNW,284,0.0,0.0,97,0.00,,,3.97,Wunderground v.1.15,2013-01-31 00:25:00,
2013-01-30 19:30:00,44.2,43.4,29.50,WNW,283,0.0,0.0,97,0.00,,,3.97,Wunderground v.1.15,2013-01-31 00:30:00,
2013-01-30 19:35:00,44.1,43.3,29.50,WNW,284,0.0,0.0,97,0.00,,,3.97,Wunderground v.1.15,2013-01-31 00:35:00,
2013-01-30 19:40:00,44.1,43.3,29.53,WNW,284,0.0,0.0,97,0.00,,,3.97,Wunderground v.1.15,2013-01-31 00:40:00,
2013-01-30 19:45:00,44.1,43.3,29.53,WNW,284,0.0,0.0,97,0.00,,,3.98,Wunderground v.1.15,2013-01-31 00:45:00,
2013-01-30 19:50:00,44.2,43.4,29.53,WNW,284,0.0,0.0,97,0.00,,,3.98,Wunderground v.1.15,2013-01-31 00:50:00,
2013-01-30 20:00:00,44.1,43.3,29.53,NW,323,1.0,1.0,97,0.00,,,3.98,Wunderground v.1.15,2013-01-31 01:00:00,
2013-01-30 20:05:00,43.6,42.5,29.50,NNW,328,1.0,1.0,96,0.00,,,3.99,Wunderground v.1.15,2013-01-31 01:05:00,
2013-01-30 20:10:00,43.1,42.0,29.51,WNW,296,1.0,1.0,96,0.00,,,3.99,Wunderground v.1.15,2013-01-31 01:10:00,
2013-01-30 20:15:00,42.5,41.2,29.51,WNW,298,0.0,1.0,95,0.00,,,3.99,Wunderground v.1.15,2013-01-31 01:15:00,
2013-01-30 20:20:00,42.3,41.2,29.52,WNW,298,0.0,0.0,96,0.00,,,3.99,Wunderground v.1.15,2013-01-31 01:20:00,
2013-01-30 20:25:00,41.9,40.8,29.53,WNW,293,0.0,0.0,96,0.00,,,4.00,Wunderground v.1.15,2013-01-31 01:25:00,
2013-01-30 20:30:00,41.8,40.7,29.54,WNW,290,0.0,3.0,96,0.00,,,4.00,Wunderground v.1.15,2013-01-31 01:30:00,
2013-01-30 20:35:00,41.5,40.4,29.54,West,271,0.0,3.0,96,0.00,,,4.00,Wunderground v.1.15,2013-01-31 01:35:00,
2013-01-30 20:45:00,41.1,39.8,29.53,SW,231,1.0,2.0,95,0.00,,,4.01,Wunderground v.1.15,2013-01-31 01:45:00,
2013-01-30 20:50:00,41.0,39.9,29.52,SW,230,0.0,0.0,96,0.00,,,4.01,Wunderground v.1.15,2013-01-31 01:50:00,
2013-01-30 20:55:00,40.8,39.7,29.53,SW,230,0.0,0.0,96,0.00,,,4.01,Wunderground v.1.15,2013-01-31 01:55:00,
2013-01-30 21:00:00,40.7,39.6,29.52,SW,232,0.0,0.0,96,0.00,,,4.01,Wunderground v.1.15,2013-01-31 02:00:00,
2013-01-30 21:05:00,40.7,39.6,29.52,SW,232,0.0,0.0,96,0.00,,,4.01,Wunderground v.1.15,2013-01-31 02:05:00,
2013-01-30 21:10:00,40.6,39.5,29.51,SW,232,0.0,0.0,96,0.00,,,4.01,Wunderground v.1.15,2013-01-31 02:10:00,
2013-01-30 21:15:00,40.6,39.5,29.52,SW,232,0.0,0.0,96,0.00,,,4.01,Wunderground v.1.15,2013-01-31 02:15:00,
2013-01-30 21:20:00,40.6,39.5,29.50,SW,232,0.0,0.0,96,0.00,,,4.01,Wunderground v.1.15,2013-01-31 02:20:00,
2013-01-30 21:25:00,40.6,39.8,29.51,SW,232,0.0,0.0,97,0.00,,,4.01,Wunderground v.1.15,2013-01-31 02:25:00,
2013-01-30 21:30:00,40.6,39.8,29.51,SW,232,0.0,0.0,97,0.00,,,4.01,Wunderground v.1.15,2013-01-31 02:30:00,
2013-01-30 21:35:00,40.7,39.9,29.52,SW,232,0.0,0.0,97,0.00,,,4.01,Wunderground v.1.15,2013-01-31 02:35:00,
2013-01-30 21:40:00,40.8,40.0,29.53,West,280,0.0,2.0,97,0.00,,,4.01,Wunderground v.1.15,2013-01-31 02:40:00,
2013-01-30 21:45:00,40.9,40.1,29.53,WNW,295,1.0,2.0,97,0.00,,,4.01,Wunderground v.1.15,2013-01-31 02:45:00,
2013-01-30 21:50:00,40.9,40.1,29.52,West,273,2.0,2.0,97,0.00,,,4.01,Wunderground v.1.15,2013-01-31 02:50:00,
2013-01-30 21:55:00,40.9,39.8,29.51,NW,311,2.0,6.0,96,0.00,,,4.01,Wunderground v.1.15,2013-01-31 02:55:00,
2013-01-30 22:00:00,40.9,39.6,29.52,West,265,3.0,3.0,95,0.00,,,4.01,Wunderground v.1.15,2013-01-31 03:00:00,
2013-01-30 22:05:00,41.1,39.5,29.54,WNW,286,4.0,4.0,94,0.00,,,4.01,Wunderground v.1.15,2013-01-31 03:05:00,
2013-01-30 22:10:00,41.3,39.2,29.54,West,275,3.0,3.0,92,0.00,,,4.01,Wunderground v.1.15,2013-01-31 03:10:00,
2013-01-30 22:15:00,41.4,39.5,29.53,NNW,343,2.0,3.0,93,0.00,,,4.01,Wunderground v.1.15,2013-01-31 03:15:00,
2013-01-30 22:20:00,41.4,39.3,29.53,NW,313,1.0,1.0,92,0.00,,,4.01,Wunderground v.1.15,2013-01-31 03:20:00,
2013-01-30 22:30:00,41.4,39.5,29.53,West,271,1.0,1.0,93,0.00,,,4.01,Wunderground v.1.15,2013-01-31 03:30:00,
2013-01-30 22:35:00,41.4,39.8,29.53,West,272,1.0,3.0,94,0.00,,,4.01,Wunderground v.1.15,2013-01-31 03:35:00,
2013-01-30 22:40:00,41.4,39.8,29.56,WNW,292,2.0,2.0,94,0.00,,,4.01,Wunderground v.1.15,2013-01-31 03:40:00,
2013-01-30 22:45:00,41.4,39.8,29.56,WNW,292,2.0,2.0,94,0.00,,,4.01,Wunderground v.1.15,2013-01-31 03:45:00,
2013-01-30 22:50:00,41.3,39.7,29.56,WNW,284,1.0,2.0,94,0.00,,,4.01,Wunderground v.1.15,2013-01-31 03:50:00,
2013-01-30 22:55:00,41.3,39.4,29.56,WNW,284,1.0,2.0,93,0.00,,,4.01,Wunderground v.1.15,2013-01-31 03:55:00,
2013-01-30 23:00:00,41.2,39.3,29.56,NW,311,1.0,1.0,93,0.00,,,4.01,Wunderground v.1.15,2013-01-31 04:00:00,
2013-01-30 23:05:00,41.3,39.7,29.57,WNW,294,1.0,9.0,94,0.00,,,4.01,Wunderground v.1.15,2013-01-31 04:05:00,
2013-01-30 23:15:00,41.1,39.5,29.57,West,267,1.0,3.0,94,0.00,,,4.01,Wunderground v.1.15,2013-01-31 04:15:00,
2013-01-30 23:20:00,41.0,39.4,29.57,West,267,1.0,1.0,94,0.00,,,4.01,Wunderground v.1.15,2013-01-31 04:20:00,
2013-01-30 23:25:00,40.9,39.3,29.58,NW,319,1.0,1.0,94,0.00,,,4.01,Wunderground v.1.15,2013-01-31 04:25:00,
2013-01-30 23:30:00,40.7,39.4,29.59,NW,315,1.0,2.0,95,0.18,,,4.03,Wunderground v.1.15,2013-01-31 04:30:00,
2013-01-30 23:35:00,40.4,38.8,29.59,NNW,345,1.0,5.0,94,0.07,,,4.03,Wunderground v.1.15,2013-01-31 04:35:00,
2013-01-30 23:40:00,39.8,38.2,29.59,WNW,303,2.0,2.0,94,0.04,,,4.03,Wunderground v.1.15,2013-01-31 04:40:00,
2013-01-30 23:45:00,39.0,37.1,29.60,NW,311,2.0,3.0,93,0.00,,,4.03,Wunderground v.1.15,2013-01-31 04:45:00,
2013-01-30 23:50:00,38.3,36.5,29.60,NW,312,2.0,2.0,93,0.00,,,4.03,Wunderground v.1.15,2013-01-31 04:50:00,
2013-01-30 23:55:00,37.9,36.1,29.61,WNW,302,2.0,2.0,93,0.00,,,4.04,Wunderground v.1.15,2013-01-31 04:55:00,